| time (UTC) | temp F | wind direction | speed knots | gust knots | rain 1hr in | rain 24hr in | rain mn in | humidity % | barometer mb |
| 20260507145147 | 54 | 59 | 1.7 | 2.6 | 0.00 | 0.00 | 0.00 | 48 | 1016.4 |
| 20260507144643 | 54 | 66 | 0.9 | 1.7 | 0.00 | 0.00 | 0.00 | 51 | 1016.5 |
| 20260507144141 | 54 | 65 | 0.9 | 3.5 | 0.00 | 0.00 | 0.00 | 51 | 1016.4 |
| 20260507143637 | 53 | 59 | 1.7 | 2.6 | 0.00 | 0.00 | 0.00 | 48 | 1016.6 |
| 20260507143135 | 53 | 83 | 0.9 | 0.9 | 0.00 | 0.00 | 0.00 | 57 | 1016.5 |
| 20260507142630 | 53 | 70 | 0.9 | 1.7 | 0.00 | 0.00 | 0.00 | 58 | 1016.8 |
| 20260507142127 | 53 | 29 | 1.7 | 2.6 | 0.00 | 0.00 | 0.00 | 58 | 1016.5 |
| 20260507141623 | 52 | 43 | 1.7 | 2.6 | 0.00 | 0.00 | 0.00 | 59 | 1016.7 |
| 20260507141120 | 51 | 24 | 0.9 | 1.7 | 0.00 | 0.00 | 0.00 | 56 | 1016.5 |
| 20260507140617 | 51 | 50 | 0.9 | 2.6 | 0.00 | 0.00 | 0.00 | 58 | 1016.7 |
| 20260507140114 | 51 | 63 | 0.9 | 2.6 | 0.00 | 0.00 | 0.00 | 55 | 1016.8 |
| 20260507135611 | 51 | 331 | 2.6 | 3.5 | 0.00 | 0.00 | 0.00 | 51 | 1016.6 |
| 20260507135109 | 51 | 18 | 0.0 | 2.6 | 0.00 | 0.00 | 0.00 | 52 | 1016.7 |
| 20260507134605 | 51 | 61 | 0.9 | 1.7 | 0.00 | 0.00 | 0.00 | 59 | 1016.5 |
| 20260507134101 | 51 | 91 | 0.0 | 0.9 | 0.00 | 0.00 | 0.00 | 61 | 1016.4 |
| 20260507133557 | 50 | 130 | 0.9 | 1.7 | 0.00 | 0.00 | 0.00 | 60 | 1016.6 |
| 20260507133055 | 50 | 110 | 0.0 | 0.9 | 0.00 | 0.00 | 0.00 | 63 | 1016.4 |
| 20260507132551 | 50 | 84 | 0.0 | 0.9 | 0.00 | 0.00 | 0.00 | 63 | 1016.6 |
| 20260507132048 | 49 | 87 | 0.0 | 0.9 | 0.00 | 0.00 | 0.00 | 62 | 1016.7 |
| 20260507131544 | 48 | 66 | 0.9 | 0.9 | 0.00 | 0.00 | 0.00 | 64 | 1016.5 |
| 20260507131042 | 48 | 69 | 0.0 | 1.7 | 0.00 | 0.00 | 0.00 | 66 | 1016.7 |
| 20260507130539 | 47 | 18 | 0.9 | 0.9 | 0.00 | 0.00 | 0.00 | 68 | 1016.5 |
| 20260507130037 | 47 | 64 | 0.9 | 1.7 | 0.00 | 0.00 | 0.00 | 68 | 1016.5 |
| 20260507125535 | 47 | 76 | 0.0 | 0.9 | 0.00 | 0.00 | 0.00 | 69 | 1016.5 |
| 20260507125032 | 47 | 61 | 0.0 | 1.7 | 0.00 | 0.00 | 0.00 | 69 | 1016.4 |
| 20260507124528 | 46 | 88 | 0.9 | 0.9 | 0.00 | 0.00 | 0.00 | 71 | 1016.5 |
| 20260507124026 | 46 | 68 | 0.0 | 0.9 | 0.00 | 0.00 | 0.00 | 75 | 1016.7 |
| 20260507123524 | 45 | 95 | 0.0 | 0.9 | 0.00 | 0.00 | 0.00 | 80 | 1016.5 |
| 20260507123021 | 44 | 73 | 0.0 | 0.9 | 0.00 | 0.00 | 0.00 | 76 | 1016.8 |
| 20260507122516 | 44 | 87 | 0.0 | 0.9 | 0.00 | 0.00 | 0.00 | 80 | 1016.6 |
| 20260507122012 | 44 | 69 | 0.0 | 0.9 | 0.00 | 0.00 | 0.00 | 79 | 1016.7 |
| 20260507121508 | 45 | 66 | 0.9 | 1.7 | 0.00 | 0.00 | 0.00 | 79 | 1016.8 |
| 20260507121004 | 44 | 88 | 0.0 | 0.9 | 0.00 | 0.00 | 0.00 | 81 | 1016.5 |
| 20260507120500 | 43 | 74 | 0.9 | 1.7 | 0.00 | 0.00 | 0.00 | 83 | 1016.7 |
| 20260507115957 | 42 | 108 | 0.0 | 0.9 | 0.00 | 0.00 | 0.00 | 85 | 1016.6 |
| 20260507115453 | 42 | 98 | 0.0 | 0.9 | 0.00 | 0.00 | 0.00 | 87 | 1016.7 |
| 20260507114949 | 41 | 102 | 0.0 | 0.0 | 0.00 | 0.00 | 0.00 | 88 | 1016.7 |
| 20260507114445 | 41 | 106 | 0.0 | 0.0 | 0.00 | 0.00 | 0.00 | 91 | 1016.5 |
| 20260507113943 | 40 | 107 | 0.0 | 0.0 | 0.00 | 0.00 | 0.00 | 93 | 1016.7 |
| 20260507113440 | 39 | 107 | 0.0 | 0.0 | 0.00 | 0.00 | 0.00 | 94 | 1016.5 |
| 20260507112937 | 39 | 102 | 0.0 | 0.9 | 0.00 | 0.00 | 0.00 | 95 | 1016.7 |
| 20260507112435 | 39 | 100 | 0.0 | 0.0 | 0.00 | 0.00 | 0.00 | 95 | 1016.8 |
| 20260507111931 | 38 | 103 | 0.0 | 0.0 | 0.00 | 0.00 | 0.00 | 96 | 1016.5 |
| 20260507111429 | 38 | 103 | 0.0 | 0.0 | 0.00 | 0.00 | 0.00 | 96 | 1016.6 |
| 20260507110925 | 38 | 104 | 0.0 | 0.0 | 0.00 | 0.00 | 0.00 | 97 | 1016.5 |
| 20260507110421 | 38 | 103 | 0.0 | 0.0 | 0.00 | 0.00 | 0.00 | 97 | 1016.4 |
| 20260507105918 | 38 | 103 | 0.0 | 0.0 | 0.00 | 0.00 | 0.00 | 97 | 1016.4 |
| 20260507105415 | 38 | 103 | 0.0 | 0.0 | 0.00 | 0.00 | 0.00 | 97 | 1016.0 |
| 20260507104911 | 38 | 103 | 0.0 | 0.0 | 0.00 | 0.00 | 0.00 | 98 | 1016.1 |
| 20260507104408 | 38 | 103 | 0.0 | 0.0 | 0.00 | 0.00 | 0.00 | 98 | 1016.0 |
| 20260507103904 | 38 | 103 | 0.0 | 0.0 | 0.00 | 0.00 | 0.00 | 98 | 1016.0 |
| 20260507103401 | 38 | 103 | 0.0 | 0.0 | 0.00 | 0.00 | 0.00 | 98 | 1016.0 |
| 20260507102857 | 38 | 103 | 0.0 | 0.0 | 0.00 | 0.00 | 0.00 | 99 | 1015.9 |
| 20260507102353 | 38 | 103 | 0.0 | 0.0 | 0.00 | 0.00 | 0.00 | 99 | 1016.0 |
| 20260507101850 | 38 | 104 | 0.0 | 0.0 | 0.00 | 0.00 | 0.00 | 99 | 1016.1 |
| 20260507101350 | 38 | 105 | 0.0 | 0.0 | 0.00 | 0.00 | 0.00 | 99 | 1016.1 |
| 20260507100848 | 38 | 106 | 0.0 | 0.0 | 0.00 | 0.00 | 0.00 | 99 | 1016.1 |
| 20260507100345 | 38 | 106 | 0.0 | 0.0 | 0.00 | 0.00 | 0.00 | 99 | 1016.0 |
| 20260507095843 | 38 | 106 | 0.0 | 0.0 | 0.00 | 0.00 | 0.00 | 99 | 1016.0 |
| 20260507095339 | 38 | 105 | 0.0 | 0.0 | 0.00 | 0.00 | 0.00 | 99 | 1016.1 |
| 20260507094837 | 38 | 105 | 0.0 | 0.0 | 0.00 | 0.00 | 0.00 | 99 | 1016.1 |
| 20260507094333 | 38 | 105 | 0.0 | 0.0 | 0.00 | 0.00 | 0.00 | 99 | 1016.1 |
| 20260507093830 | 38 | 105 | 0.0 | 0.0 | 0.00 | 0.00 | 0.00 | 99 | 1016.0 |
| 20260507093329 | 39 | 105 | 0.0 | 0.0 | 0.00 | 0.00 | 0.00 | 99 | 1016.2 |
| 20260507092826 | 39 | 105 | 0.0 | 0.0 | 0.00 | 0.00 | 0.00 | 99 | 1015.9 |
| 20260507092323 | 39 | 105 | 0.0 | 0.0 | 0.00 | 0.00 | 0.00 | 99 | 1016.0 |
| 20260507091819 | 39 | 105 | 0.0 | 0.0 | 0.00 | 0.00 | 0.00 | 99 | 1015.9 |
| 20260507091316 | 39 | 104 | 0.0 | 0.0 | 0.00 | 0.00 | 0.00 | 99 | 1015.8 |
| 20260507090811 | 39 | 104 | 0.0 | 0.0 | 0.00 | 0.00 | 0.00 | 99 | 1015.8 |
| 20260507090308 | 39 | 104 | 0.0 | 0.0 | 0.00 | 0.00 | 0.00 | 99 | 1015.8 |
| 20260507085805 | 39 | 104 | 0.0 | 0.0 | 0.00 | 0.00 | 0.00 | 99 | 1015.9 |
| 20260507085301 | 39 | 104 | 0.0 | 0.0 | 0.00 | 0.00 | 0.00 | 99 | 1015.7 |
| 20260507084759 | 39 | 104 | 0.0 | 0.0 | 0.00 | 0.00 | 0.00 | 99 | 1015.8 |
| 20260507084255 | 39 | 104 | 0.0 | 0.0 | 0.00 | 0.00 | 0.00 | 99 | 1015.5 |
| 20260507083753 | 39 | 104 | 0.0 | 0.0 | 0.00 | 0.00 | 0.00 | 99 | 1015.7 |
| 20260507083249 | 39 | 104 | 0.0 | 0.0 | 0.00 | 0.00 | 0.00 | 99 | 1015.6 |
| 20260507082745 | 39 | 104 | 0.0 | 0.0 | 0.00 | 0.00 | 0.00 | 99 | 1015.6 |
| 20260507082241 | 39 | 104 | 0.0 | 0.0 | 0.00 | 0.00 | 0.00 | 99 | 1015.5 |
| 20260507081738 | 39 | 104 | 0.0 | 0.0 | 0.00 | 0.00 | 0.00 | 99 | 1015.6 |
| 20260507081234 | 39 | 104 | 0.0 | 0.0 | 0.00 | 0.00 | 0.00 | 99 | 1015.4 |
| 20260507080731 | 39 | 104 | 0.0 | 0.0 | 0.00 | 0.00 | 0.00 | 99 | 1015.4 |
| 20260507080227 | 39 | 104 | 0.0 | 0.0 | 0.00 | 0.00 | 0.00 | 99 | 1015.4 |
| 20260507075722 | 40 | 104 | 0.0 | 0.0 | 0.00 | 0.00 | 0.00 | 99 | 1015.6 |
| 20260507075219 | 40 | 104 | 0.0 | 0.0 | 0.00 | 0.00 | 0.00 | 99 | 1015.6 |
| 20260507074715 | 40 | 104 | 0.0 | 0.0 | 0.00 | 0.00 | 0.00 | 99 | 1015.5 |
| 20260507074214 | 40 | 104 | 0.0 | 0.0 | 0.00 | 0.00 | 0.00 | 99 | 1015.5 |
| 20260507073710 | 40 | 105 | 0.0 | 0.0 | 0.00 | 0.00 | 0.00 | 99 | 1015.5 |
| 20260507073206 | 40 | 105 | 0.0 | 0.0 | 0.00 | 0.00 | 0.00 | 99 | 1015.4 |
| 20260507072704 | 41 | 105 | 0.0 | 0.0 | 0.00 | 0.00 | 0.00 | 99 | 1015.5 |
| 20260507072201 | 41 | 105 | 0.0 | 0.0 | 0.00 | 0.00 | 0.00 | 99 | 1015.5 |
| 20260507071659 | 41 | 105 | 0.0 | 0.0 | 0.00 | 0.00 | 0.00 | 99 | 1015.6 |
| 20260507071155 | 41 | 105 | 0.0 | 0.0 | 0.00 | 0.00 | 0.00 | 99 | 1015.5 |
| 20260507070652 | 41 | 103 | 0.0 | 0.0 | 0.00 | 0.00 | 0.00 | 99 | 1015.3 |
| 20260507070149 | 41 | 103 | 0.0 | 0.0 | 0.00 | 0.00 | 0.00 | 99 | 1015.5 |
| 20260507065645 | 41 | 103 | 0.0 | 0.0 | 0.00 | 0.00 | 0.00 | 99 | 1015.5 |
| 20260507065142 | 41 | 103 | 0.0 | 0.0 | 0.00 | 0.00 | 0.00 | 99 | 1015.5 |
| 20260507064640 | 41 | 103 | 0.0 | 0.0 | 0.00 | 0.00 | 0.00 | 99 | 1015.6 |
| 20260507064138 | 41 | 103 | 0.0 | 0.0 | 0.00 | 0.00 | 0.00 | 99 | 1015.6 |
| 20260507063636 | 41 | 103 | 0.0 | 0.0 | 0.00 | 0.00 | 0.00 | 99 | 1015.6 |
| 20260507063132 | 41 | 103 | 0.0 | 0.0 | 0.00 | 0.00 | 0.00 | 99 | 1015.6 |
| 20260507062629 | 41 | 103 | 0.0 | 0.0 | 0.00 | 0.00 | 0.00 | 99 | 1015.7 |
| 20260507062127 | 41 | 103 | 0.0 | 0.0 | 0.00 | 0.00 | 0.00 | 99 | 1015.8 |
| 20260507061624 | 41 | 103 | 0.0 | 0.0 | 0.00 | 0.00 | 0.00 | 99 | 1015.8 |
| 20260507061122 | 41 | 103 | 0.0 | 0.0 | 0.00 | 0.00 | 0.00 | 99 | 1015.7 |
| 20260507060620 | 42 | 103 | 0.0 | 0.0 | 0.00 | 0.00 | 0.00 | 98 | 1015.6 |
| 20260507060116 | 42 | 103 | 0.0 | 0.0 | 0.00 | 0.00 | 0.00 | 98 | 1015.6 |
| 20260507055612 | 42 | 103 | 0.0 | 0.0 | 0.00 | 0.00 | 0.00 | 98 | 1015.6 |
| 20260507055108 | 42 | 103 | 0.0 | 0.0 | 0.00 | 0.00 | 0.00 | 98 | 1015.6 |
| 20260507054604 | 42 | 103 | 0.0 | 0.0 | 0.00 | 0.00 | 0.00 | 98 | 1015.8 |
| 20260507054101 | 42 | 103 | 0.0 | 0.0 | 0.00 | 0.00 | 0.00 | 98 | 1015.7 |
| 20260507053559 | 42 | 103 | 0.0 | 0.0 | 0.00 | 0.00 | 0.00 | 98 | 1015.8 |
| 20260507053058 | 42 | 103 | 0.0 | 0.0 | 0.00 | 0.00 | 0.00 | 98 | 1015.7 |
| 20260507052555 | 43 | 103 | 0.0 | 0.0 | 0.00 | 0.00 | 0.00 | 98 | 1015.8 |
| 20260507052051 | 43 | 103 | 0.0 | 0.0 | 0.00 | 0.00 | 0.00 | 98 | 1015.8 |
| 20260507051549 | 42 | 103 | 0.0 | 0.0 | 0.00 | 0.00 | 0.00 | 97 | 1015.6 |
| 20260507051046 | 42 | 103 | 0.0 | 0.0 | 0.00 | 0.00 | 0.00 | 97 | 1015.8 |
| 20260507050542 | 43 | 103 | 0.0 | 0.0 | 0.00 | 0.00 | 0.00 | 97 | 1015.7 |
| 20260507050039 | 43 | 103 | 0.0 | 0.0 | 0.00 | 0.00 | 0.00 | 96 | 1015.7 |
| 20260507045536 | 43 | 103 | 0.0 | 0.0 | 0.00 | 0.00 | 0.00 | 96 | 1015.8 |
| 20260507045033 | 43 | 103 | 0.0 | 0.0 | 0.00 | 0.00 | 0.00 | 96 | 1015.8 |
| 20260507044529 | 44 | 103 | 0.0 | 0.0 | 0.00 | 0.00 | 0.00 | 95 | 1015.9 |
| 20260507044026 | 44 | 103 | 0.0 | 0.0 | 0.00 | 0.00 | 0.00 | 95 | 1015.9 |
| 20260507043522 | 44 | 103 | 0.0 | 0.0 | 0.00 | 0.00 | 0.00 | 95 | 1015.9 |
| 20260507043020 | 44 | 104 | 0.0 | 0.0 | 0.00 | 0.00 | 0.00 | 95 | 1015.9 |
| 20260507042515 | 45 | 104 | 0.0 | 0.0 | 0.00 | 0.00 | 0.00 | 94 | 1015.7 |
| 20260507042011 | 45 | 104 | 0.0 | 0.0 | 0.00 | 0.00 | 0.00 | 94 | 1015.7 |
| 20260507041508 | 45 | 104 | 0.0 | 0.0 | 0.00 | 0.00 | 0.00 | 93 | 1015.7 |
| 20260507041005 | 45 | 104 | 0.0 | 0.0 | 0.00 | 0.00 | 0.00 | 93 | 1016.0 |
| 20260507040501 | 45 | 104 | 0.0 | 0.0 | 0.00 | 0.00 | 0.00 | 93 | 1015.7 |
| 20260507035956 | 46 | 104 | 0.0 | 0.0 | 0.00 | 0.48 | 0.48 | 92 | 1015.7 |
| 20260507035453 | 46 | 104 | 0.0 | 0.0 | 0.00 | 0.48 | 0.48 | 91 | 1015.7 |
| 20260507034950 | 46 | 104 | 0.0 | 0.0 | 0.00 | 0.48 | 0.48 | 91 | 1015.6 |
| 20260507034447 | 46 | 104 | 0.0 | 0.0 | 0.00 | 0.48 | 0.48 | 91 | 1015.6 |
| 20260507033945 | 47 | 104 | 0.0 | 0.0 | 0.00 | 0.48 | 0.48 | 90 | 1015.6 |
| 20260507033443 | 47 | 104 | 0.0 | 0.0 | 0.00 | 0.48 | 0.48 | 90 | 1015.8 |
| 20260507032940 | 47 | 104 | 0.0 | 0.0 | 0.00 | 0.48 | 0.48 | 90 | 1015.7 |
| 20260507032437 | 47 | 104 | 0.0 | 0.0 | 0.00 | 0.48 | 0.48 | 91 | 1015.6 |
| 20260507031932 | 47 | 104 | 0.0 | 0.0 | 0.00 | 0.48 | 0.48 | 92 | 1015.7 |
| 20260507031429 | 46 | 104 | 0.0 | 0.0 | 0.00 | 0.48 | 0.48 | 92 | 1015.7 |
| 20260507030926 | 46 | 104 | 0.0 | 0.0 | 0.00 | 0.48 | 0.48 | 92 | 1015.9 |
| 20260507030423 | 46 | 104 | 0.0 | 0.0 | 0.00 | 0.48 | 0.48 | 92 | 1015.9 |
| 20260507025920 | 46 | 104 | 0.0 | 0.0 | 0.00 | 0.48 | 0.48 | 92 | 1016.0 |
| 20260507025418 | 46 | 104 | 0.0 | 0.0 | 0.00 | 0.48 | 0.48 | 91 | 1015.8 |
| 20260507024915 | 46 | 104 | 0.0 | 0.0 | 0.00 | 0.48 | 0.48 | 90 | 1016.0 |
| 20260507024413 | 46 | 105 | 0.0 | 0.0 | 0.00 | 0.48 | 0.48 | 90 | 1015.8 |
| 20260507023908 | 47 | 105 | 0.0 | 0.0 | 0.00 | 0.48 | 0.48 | 90 | 1015.8 |
| 20260507023405 | 47 | 129 | 0.0 | 0.9 | 0.00 | 0.48 | 0.48 | 90 | 1015.6 |
| 20260507022903 | 46 | 110 | 0.0 | 0.0 | 0.00 | 0.48 | 0.48 | 90 | 1015.6 |
| 20260507022359 | 47 | 88 | 0.0 | 0.0 | 0.00 | 0.48 | 0.48 | 88 | 1015.6 |
| 20260507021855 | 47 | 88 | 0.0 | 0.0 | 0.00 | 0.48 | 0.48 | 88 | 1015.7 |
| 20260507021350 | 47 | 88 | 0.0 | 0.0 | 0.00 | 0.48 | 0.48 | 87 | 1015.6 |
| 20260507020849 | 48 | 88 | 0.0 | 0.0 | 0.00 | 0.48 | 0.48 | 85 | 1015.6 |
| 20260507020345 | 48 | 88 | 0.0 | 0.0 | 0.00 | 0.48 | 0.48 | 85 | 1015.5 |
| 20260507015842 | 48 | 88 | 0.0 | 0.0 | 0.00 | 0.48 | 0.48 | 83 | 1015.4 |
| 20260507015340 | 49 | 88 | 0.0 | 0.0 | 0.00 | 0.48 | 0.48 | 81 | 1015.5 |
| 20260507014837 | 50 | 88 | 0.0 | 0.0 | 0.00 | 0.48 | 0.48 | 81 | 1015.4 |
| 20260507014333 | 50 | 88 | 0.0 | 0.0 | 0.00 | 0.48 | 0.48 | 79 | 1015.5 |
| 20260507013829 | 50 | 88 | 0.0 | 0.0 | 0.00 | 0.48 | 0.48 | 79 | 1015.5 |
| 20260507013327 | 50 | 88 | 0.0 | 0.0 | 0.00 | 0.48 | 0.48 | 77 | 1015.4 |
| 20260507012824 | 50 | 88 | 0.0 | 0.0 | 0.00 | 0.48 | 0.48 | 78 | 1015.1 |
| 20260507012320 | 50 | 80 | 0.0 | 0.0 | 0.00 | 0.48 | 0.48 | 75 | 1015.0 |
| 20260507011817 | 50 | 80 | 0.0 | 0.0 | 0.00 | 0.48 | 0.48 | 73 | 1015.1 |
| 20260507011314 | 50 | 80 | 0.0 | 0.0 | 0.00 | 0.48 | 0.48 | 72 | 1014.9 |
| 20260507010814 | 51 | 80 | 0.0 | 0.0 | 0.00 | 0.48 | 0.48 | 72 | 1014.9 |
| 20260507010309 | 51 | 80 | 0.0 | 0.0 | 0.00 | 0.48 | 0.48 | 71 | 1014.9 |
| 20260507005807 | 51 | 80 | 0.0 | 0.0 | 0.00 | 0.48 | 0.48 | 70 | 1015.1 |
| 20260507005305 | 52 | 80 | 0.0 | 0.0 | 0.00 | 0.48 | 0.48 | 69 | 1015.2 |
| 20260507004800 | 52 | 80 | 0.0 | 0.0 | 0.00 | 0.48 | 0.48 | 69 | 1014.8 |
| 20260507004258 | 52 | 80 | 0.0 | 0.0 | 0.00 | 0.48 | 0.48 | 68 | 1014.9 |
| 20260507003754 | 53 | 79 | 0.0 | 0.0 | 0.00 | 0.48 | 0.48 | 68 | 1014.9 |
| 20260507003249 | 53 | 79 | 0.0 | 0.0 | 0.00 | 0.48 | 0.48 | 68 | 1014.8 |
| 20260507002745 | 53 | 70 | 0.0 | 0.0 | 0.00 | 0.48 | 0.48 | 68 | 1015.0 |
| 20260507002241 | 53 | 67 | 0.0 | 0.0 | 0.00 | 0.48 | 0.48 | 69 | 1014.8 |
| 20260507001738 | 54 | 65 | 0.0 | 0.9 | 0.00 | 0.48 | 0.48 | 67 | 1014.7 |
| 20260507001236 | 54 | 56 | 0.9 | 1.7 | 0.00 | 0.48 | 0.48 | 66 | 1014.7 |
| 20260507000732 | 54 | 69 | 0.0 | 0.9 | 0.00 | 0.48 | 0.48 | 66 | 1014.9 |
| 20260507000228 | 55 | 63 | 0.0 | 1.7 | 0.00 | 0.48 | 0.48 | 66 | 1014.6 |
| 20260506235725 | 55 | 63 | 0.0 | 0.9 | 0.00 | 0.48 | 0.48 | 64 | 1014.6 |
| 20260506235220 | 55 | 72 | 0.0 | 0.9 | 0.00 | 0.48 | 0.48 | 65 | 1014.5 |
| 20260506234717 | 55 | 56 | 0.0 | 0.9 | 0.00 | 0.48 | 0.48 | 63 | 1014.5 |
| 20260506234215 | 55 | 53 | 0.9 | 1.7 | 0.00 | 0.48 | 0.48 | 62 | 1014.2 |
| 20260506233712 | 55 | 358 | 1.7 | 2.6 | 0.00 | 0.48 | 0.48 | 62 | 1014.3 |
| 20260506233208 | 55 | 46 | 0.9 | 1.7 | 0.00 | 0.48 | 0.48 | 63 | 1014.3 |
| 20260506232706 | 55 | 47 | 0.9 | 1.7 | 0.00 | 0.48 | 0.48 | 60 | 1014.3 |
| 20260506232200 | 55 | 66 | 0.9 | 0.9 | 0.00 | 0.48 | 0.48 | 64 | 1014.4 |
| 20260506231658 | 56 | 67 | 0.0 | 1.7 | 0.00 | 0.48 | 0.48 | 62 | 1014.5 |
| 20260506231156 | 56 | 53 | 0.9 | 1.7 | 0.00 | 0.48 | 0.48 | 59 | 1014.1 |
| 20260506230652 | 57 | 43 | 1.7 | 1.7 | 0.00 | 0.48 | 0.48 | 58 | 1014.0 |
| 20260506230149 | 57 | 36 | 1.7 | 1.7 | 0.00 | 0.48 | 0.48 | 57 | 1013.9 |
| 20260506225646 | 56 | 53 | 0.9 | 1.7 | 0.00 | 0.48 | 0.48 | 58 | 1014.0 |
| 20260506225143 | 57 | 51 | 0.9 | 1.7 | 0.00 | 0.48 | 0.48 | 62 | 1014.1 |
| 20260506224639 | 57 | 60 | 0.9 | 0.9 | 0.00 | 0.48 | 0.48 | 63 | 1014.1 |
| 20260506224136 | 57 | 98 | 0.0 | 1.7 | 0.00 | 0.48 | 0.48 | 65 | 1014.3 |
| 20260506223632 | 57 | 58 | 0.9 | 1.7 | 0.00 | 0.48 | 0.48 | 61 | 1014.1 |
| 20260506223128 | 57 | 70 | 0.9 | 0.9 | 0.00 | 0.48 | 0.48 | 64 | 1014.3 |
| 20260506222625 | 57 | 59 | 0.9 | 0.9 | 0.00 | 0.48 | 0.48 | 62 | 1014.3 |
| 20260506222121 | 57 | 50 | 0.9 | 1.7 | 0.00 | 0.48 | 0.48 | 62 | 1014.5 |
| 20260506221619 | 57 | 357 | 1.7 | 1.7 | 0.00 | 0.48 | 0.48 | 60 | 1014.3 |
| 20260506221117 | 57 | 55 | 0.9 | 1.7 | 0.00 | 0.48 | 0.48 | 61 | 1014.3 |
| 20260506220613 | 56 | 56 | 0.9 | 1.7 | 0.00 | 0.48 | 0.48 | 65 | 1014.4 |
| 20260506220109 | 56 | 54 | 0.9 | 1.7 | 0.00 | 0.48 | 0.48 | 64 | 1014.7 |
| 20260506215606 | 56 | 13 | 1.7 | 1.7 | 0.00 | 0.48 | 0.48 | 63 | 1014.5 |
| 20260506215101 | 57 | 44 | 0.9 | 1.7 | 0.00 | 0.48 | 0.48 | 63 | 1014.4 |
| 20260506214558 | 57 | 58 | 0.9 | 1.7 | 0.00 | 0.48 | 0.48 | 58 | 1014.6 |
| 20260506214055 | 57 | 67 | 0.0 | 0.0 | 0.00 | 0.48 | 0.48 | 63 | 1014.5 |
| 20260506213554 | 57 | 74 | 0.9 | 0.9 | 0.00 | 0.48 | 0.48 | 63 | 1014.6 |
| 20260506213050 | 57 | 69 | 0.9 | 0.9 | 0.00 | 0.48 | 0.48 | 62 | 1014.4 |
| 20260506212547 | 57 | 91 | 0.0 | 0.9 | 0.00 | 0.48 | 0.48 | 62 | 1014.3 |
| 20260506212042 | 57 | 45 | 0.9 | 0.9 | 0.00 | 0.48 | 0.48 | 59 | 1014.3 |
| 20260506211538 | 58 | 96 | 0.0 | 0.9 | 0.00 | 0.48 | 0.48 | 63 | 1014.3 |
| 20260506211036 | 57 | 62 | 0.0 | 0.9 | 0.00 | 0.48 | 0.48 | 56 | 1014.2 |
| 20260506210532 | 58 | 41 | 0.9 | 0.9 | 0.00 | 0.48 | 0.48 | 57 | 1014.3 |
| 20260506210029 | 58 | 94 | 0.0 | 1.7 | 0.00 | 0.48 | 0.48 | 59 | 1014.0 |
| 20260506205526 | 57 | 53 | 0.9 | 1.7 | 0.00 | 0.48 | 0.48 | 62 | 1013.9 |
| 20260506205021 | 58 | 58 | 0.0 | 0.9 | 0.00 | 0.48 | 0.48 | 56 | 1014.2 |
| 20260506204519 | 58 | 53 | 1.7 | 1.7 | 0.00 | 0.48 | 0.48 | 63 | 1014.2 |
| 20260506204016 | 58 | 83 | 0.9 | 1.7 | 0.00 | 0.48 | 0.48 | 61 | 1014.0 |
| 20260506203514 | 58 | 71 | 0.9 | 1.7 | 0.00 | 0.48 | 0.48 | 59 | 1014.1 |
| 20260506203010 | 58 | 53 | 0.9 | 0.9 | 0.00 | 0.48 | 0.48 | 57 | 1014.1 |
| 20260506202508 | 59 | 50 | 0.9 | 1.7 | 0.00 | 0.48 | 0.48 | 61 | 1014.0 |
| 20260506202003 | 57 | 44 | 0.9 | 1.7 | 0.00 | 0.48 | 0.48 | 60 | 1014.2 |
| 20260506201502 | 57 | 63 | 0.9 | 1.7 | 0.00 | 0.48 | 0.48 | 59 | 1014.2 |
| 20260506200958 | 57 | 64 | 0.9 | 1.7 | 0.00 | 0.48 | 0.48 | 59 | 1014.4 |
| 20260506200454 | 57 | 17 | 0.9 | 1.7 | 0.00 | 0.48 | 0.48 | 62 | 1014.1 |
| 20260506195950 | 57 | 56 | 0.9 | 1.7 | 0.00 | 0.48 | 0.48 | 62 | 1014.0 |
| 20260506195448 | 58 | 26 | 1.7 | 1.7 | 0.00 | 0.48 | 0.48 | 62 | 1014.3 |
| 20260506194944 | 58 | 47 | 0.9 | 1.7 | 0.00 | 0.48 | 0.48 | 65 | 1014.2 |
| 20260506194442 | 58 | 55 | 1.7 | 2.6 | 0.00 | 0.48 | 0.48 | 58 | 1014.2 |
| 20260506193938 | 59 | 53 | 0.9 | 1.7 | 0.00 | 0.48 | 0.48 | 61 | 1014.1 |
| 20260506193436 | 59 | 54 | 0.9 | 1.7 | 0.00 | 0.48 | 0.48 | 66 | 1014.0 |
| 20260506192932 | 59 | 153 | 0.9 | 1.7 | 0.00 | 0.48 | 0.48 | 60 | 1014.2 |
| 20260506192429 | 58 | 44 | 1.7 | 1.7 | 0.00 | 0.48 | 0.48 | 62 | 1014.0 |
| 20260506191926 | 58 | 45 | 1.7 | 2.6 | 0.00 | 0.48 | 0.48 | 58 | 1013.7 |
| 20260506191422 | 59 | 4 | 1.7 | 1.7 | 0.00 | 0.48 | 0.48 | 62 | 1013.8 |
| 20260506190919 | 59 | 43 | 1.7 | 1.7 | 0.00 | 0.48 | 0.48 | 63 | 1013.6 |
| 20260506190416 | 59 | 38 | 1.7 | 2.6 | 0.00 | 0.48 | 0.48 | 59 | 1013.7 |
| 20260506185913 | 59 | 53 | 0.0 | 1.7 | 0.00 | 0.48 | 0.48 | 60 | 1013.7 |
| 20260506185410 | 60 | 48 | 0.9 | 1.7 | 0.00 | 0.48 | 0.48 | 63 | 1013.6 |
| 20260506184907 | 60 | 23 | 1.7 | 2.6 | 0.00 | 0.48 | 0.48 | 54 | 1013.7 |
| 20260506184404 | 60 | 54 | 0.9 | 2.6 | 0.00 | 0.48 | 0.48 | 56 | 1013.8 |
| 20260506183901 | 61 | 65 | 0.9 | 1.7 | 0.00 | 0.48 | 0.48 | 60 | 1013.7 |
| 20260506183356 | 60 | 84 | 0.0 | 1.7 | 0.00 | 0.48 | 0.48 | 60 | 1013.7 |
| 20260506182854 | 61 | 87 | 0.0 | 1.7 | 0.00 | 0.48 | 0.48 | 61 | 1013.8 |
| 20260506182351 | 60 | 57 | 0.0 | 0.9 | 0.00 | 0.48 | 0.48 | 66 | 1013.7 |
| 20260506181848 | 60 | 51 | 0.9 | 1.7 | 0.00 | 0.48 | 0.48 | 55 | 1013.7 |
| 20260506181346 | 61 | 45 | 0.9 | 1.7 | 0.00 | 0.48 | 0.48 | 68 | 1013.6 |
| 20260506180843 | 61 | 54 | 0.9 | 0.9 | 0.00 | 0.48 | 0.48 | 59 | 1013.7 |
| 20260506180339 | 60 | 75 | 0.9 | 1.7 | 0.00 | 0.48 | 0.48 | 63 | 1013.8 |
| 20260506175835 | 59 | 103 | 0.9 | 2.6 | 0.00 | 0.48 | 0.48 | 58 | 1014.0 |
| 20260506175332 | 59 | 49 | 0.9 | 2.6 | 0.00 | 0.48 | 0.48 | 58 | 1013.9 |
| 20260506174829 | 60 | 340 | 2.6 | 2.6 | 0.00 | 0.48 | 0.48 | 56 | 1014.0 |
| 20260506174327 | 60 | 124 | 0.9 | 0.9 | 0.00 | 0.48 | 0.48 | 56 | 1014.0 |
| 20260506173824 | 58 | 58 | 0.0 | 2.6 | 0.00 | 0.48 | 0.48 | 68 | 1014.1 |
| 20260506173321 | 58 | 1 | 1.7 | 2.6 | 0.00 | 0.48 | 0.48 | 58 | 1014.2 |
| 20260506172818 | 59 | 46 | 1.7 | 1.7 | 0.00 | 0.48 | 0.48 | 63 | 1014.2 |
| 20260506172314 | 59 | 37 | 1.7 | 1.7 | 0.00 | 0.48 | 0.48 | 60 | 1014.1 |
| 20260506171812 | 57 | 65 | 0.9 | 0.9 | 0.00 | 0.48 | 0.48 | 66 | 1014.3 |
| 20260506171309 | 57 | 64 | 0.9 | 0.9 | 0.00 | 0.48 | 0.48 | 64 | 1014.4 |
| 20260506170807 | 57 | 55 | 0.9 | 1.7 | 0.00 | 0.48 | 0.48 | 67 | 1014.4 |
| 20260506170302 | 58 | 62 | 0.9 | 0.9 | 0.00 | 0.48 | 0.48 | 65 | 1014.4 |
| 20260506165802 | 57 | 188 | 0.9 | 1.7 | 0.00 | 0.48 | 0.48 | 64 | 1014.5 |
| 20260506165258 | 57 | 342 | 0.9 | 2.6 | 0.00 | 0.48 | 0.48 | 65 | 1014.3 |
| 20260506164755 | 57 | 19 | 1.7 | 2.6 | 0.00 | 0.48 | 0.48 | 61 | 1014.6 |
| 20260506164252 | 57 | 69 | 0.0 | 0.9 | 0.00 | 0.48 | 0.48 | 67 | 1014.4 |
| 20260506163744 | 58 | 56 | 0.9 | 1.7 | 0.00 | 0.48 | 0.48 | 69 | 1014.3 |
| 20260506163244 | 58 | 202 | 0.9 | 1.7 | 0.00 | 0.48 | 0.48 | 65 | 1014.4 |
| 20260506162740 | 57 | 126 | 0.9 | 0.9 | 0.00 | 0.48 | 0.48 | 71 | 1014.2 |
| 20260506162238 | 56 | 48 | 0.0 | 1.7 | 0.00 | 0.48 | 0.48 | 67 | 1014.3 |
| 20260506161735 | 56 | 41 | 2.6 | 2.6 | 0.00 | 0.48 | 0.48 | 70 | 1014.3 |
| 20260506161232 | 55 | 67 | 0.0 | 0.9 | 0.00 | 0.48 | 0.48 | 74 | 1014.4 |
| 20260506160730 | 55 | 57 | 0.0 | 0.9 | 0.00 | 0.48 | 0.48 | 73 | 1014.5 |
| 20260506160226 | 55 | 356 | 1.7 | 2.6 | 0.00 | 0.48 | 0.48 | 71 | 1014.2 |
| 20260506155725 | 55 | 351 | 2.6 | 2.6 | 0.00 | 0.48 | 0.48 | 68 | 1014.2 |
| 20260506155221 | 54 | 53 | 0.0 | 1.7 | 0.00 | 0.48 | 0.48 | 65 | 1014.2 |
| 20260506153323 | 53 | 49 | 0.9 | 1.7 | 0.00 | 0.48 | 0.48 | 78 | 1014.1 |
| 20260506152820 | 52 | 61 | 0.9 | 1.7 | 0.00 | 0.48 | 0.48 | 80 | 1013.8 |
| 20260506152317 | 51 | 30 | 0.9 | 0.9 | 0.00 | 0.48 | 0.48 | 78 | 1014.0 |
| 20260506151816 | 51 | 42 | 0.9 | 2.6 | 0.00 | 0.48 | 0.48 | 74 | 1014.3 |
| 20260506151312 | 51 | 41 | 0.9 | 2.6 | 0.00 | 0.48 | 0.48 | 75 | 1014.4 |
| 20260506150809 | 51 | 59 | 0.0 | 1.7 | 0.00 | 0.48 | 0.48 | 77 | 1014.3 |
| 20260506150306 | 51 | 41 | 1.7 | 2.6 | 0.00 | 0.48 | 0.48 | 77 | 1014.2 |
| 20260506145803 | 51 | 68 | 0.0 | 1.7 | 0.00 | 0.48 | 0.48 | 77 | 1013.6 |